Regional Weather Roundup
Issued by NWS

Home | Current Version | Previous Version | Text Only | Print | Product List | Glossary On
Versions: 1 2 3 4 5 6 7 8 9 10 11 12 13 14 15 16 17 18 19 20 21 22 23 24 25 26 27 28 29 30 31 32 33 34 35 36 37 38 39 40 41 42 43 44 45 46 47 48 49 50
000
ASUS43 KMKX 281221
RWRWI

WISCONSIN REGIONAL WEATHER ROUNDUP
NATIONAL WEATHER SERVICE MILWAUKEE/SULLIVAN WI
600 AM CST WED JAN 28 2015

NOTE: "FAIR" INDICATES FEW OR NO CLOUDS BELOW 12,000 FEET WITH NO
SIGNIFICANT WEATHER AND/OR OBSTRUCTIONS TO VISIBILITY.

WIZ001-002-006>008-014>016-023>028-281300-
NORTHWEST WISCONSIN

CITY           SKY/WX    TMP DP  RH WIND       PRES   REMARKS
SUPERIOR ARPT  CLOUDY    25  21  84 SE5       30.06F WCI  20
6HR MIN TEMP:  23; 6HR MAX TEMP:  29;

ASHLAND        MOCLDY    24  20  84 S3        30.08F
6HR MIN TEMP:  24; 6HR MAX TEMP:  28;

HAYWARD        CLOUDY    24  19  81 S9        30.05F HAZE    WCI  14
6HR MIN TEMP:  21; 6HR MAX TEMP:  25;

SIREN          CLOUDY    25  22  86 SE8       30.04F WCI  16
6HR MIN TEMP:  24; 6HR MAX TEMP:  26;

CUMBERLAND     CLOUDY    23  21  93 SE10G17   30.05S FOG     WCI  12
RICE LAKE      CLOUDY    25  22  88 SE12      30.08F WCI  14
6HR MIN TEMP:  23; 6HR MAX TEMP:  26;

CHETEK         CLOUDY    24  21  89 SE13      30.08F WCI  12
6HR MIN TEMP:  23; 6HR MAX TEMP:  25;

LADYSMITH      CLOUDY    24  22  91 SE9       30.11S FOG     WCI  15
6HR MIN TEMP:  24; 6HR MAX TEMP:  26;

EAU CLAIRE     CLOUDY    25  20  81 SE8       30.10F WCI  16
6HR MIN TEMP:  25; 6HR MAX TEMP:  26;

MENOMONIE      CLOUDY    26  23  87 SE10      30.09F WCI  16
6HR MIN TEMP:  26; 6HR MAX TEMP:  27;

NEW RICHMOND   CLOUDY    26  23  87 SE12      30.04F WCI  16
6HR MIN TEMP:  26; 6HR MAX TEMP:  28;

OSCEOLA        CLOUDY    28  25  90 SE12      30.07S WCI  18
6HR MIN TEMP:  28; 6HR MAX TEMP:  29;

$$

WIZ003>005-009-010-017-018-281300-
NORTH CENTRAL WISCONSIN

CITY           SKY/WX    TMP DP  RH WIND       PRES   REMARKS
MANITOWISH WTR CLOUDY    22  22 100 S7        30.07F FOG     WCI  13
6HR MIN TEMP:  22; 6HR MAX TEMP:  22;

ARBOR VITAE    CLOUDY    24  22  93 S6        30.08F FOG     WCI  17
6HR MIN TEMP:  23; 6HR MAX TEMP:  24;

WOODRUFF       CLOUDY    24  22  93 S6        30.08F FOG     WCI  17
6HR MIN TEMP:  23; 6HR MAX TEMP:  24;

RHINELANDER    CLOUDY    22  20  92 S7        30.10F FOG     WCI  13
6HR MIN TEMP:  22; 6HR MAX TEMP:  22;

EAGLE RIVER    CLOUDY    22  20  91 S5        30.09F FOG     WCI  16
6HR MIN TEMP:  22; 6HR MAX TEMP:  22;

LAND O LAKES   CLOUDY    23  22  97 S6        30.09F FOG     WCI  15
6HR MIN TEMP:  22; 6HR MAX TEMP:  23;

PHILLIPS       CLOUDY    22  22  96 SE7       30.08S FOG     WCI  14
6HR MIN TEMP:  22; 6HR MAX TEMP:  23;

TOMAHAWK       CLOUDY    23  21  94 S6        30.11F FOG     WCI  15
6HR MIN TEMP:  22; 6HR MAX TEMP:  23;

MEDFORD        CLOUDY    21  21 100 SE7       30.10S FOG     WCI  13
MERRILL        CLOUDY    24  20  88 SE5       30.12F WCI  18
6HR MIN TEMP:  23; 6HR MAX TEMP:  24;

$$

WIZ029-030-035-036-043>047-281300-
CENTRAL WISCONSIN

CITY           SKY/WX    TMP DP  RH WIND       PRES   REMARKS
WAUSAU         CLOUDY    24  19  81 S10       30.13F WCI  14
6HR MIN TEMP:  23; 6HR MAX TEMP:  24;

MOSINEE        CLOUDY    25  21  86 S8        30.15F WCI  16
MARSHFIELD     CLOUDY    25  22  88 S13       30.13S FOG     WCI  14
6HR MIN TEMP:  24; 6HR MAX TEMP:  25;

STEVENS POINT  CLOUDY    23  19  85 S6        30.16S WCI  15
6HR MIN TEMP:  22; 6HR MAX TEMP:  23;

WAUPACA        CLOUDY    26  20  77 SE7       30.20F WCI  19
6HR MIN TEMP:  25; 6HR MAX TEMP:  26;

WAUTOMA        CLOUDY    25  21  84 S7        30.21S WCI  17
6HR MIN TEMP:  23; 6HR MAX TEMP:  25;

WISC RAPIDS    CLOUDY    25  21  85 SE8       30.17S WCI  16
6HR MIN TEMP:  24; 6HR MAX TEMP:  25;

CAMP DOUGLAS   CLOUDY    26  26 100 SE12      30.15F WCI  16
6HR MIN TEMP:  26; 6HR MAX TEMP:  27;

$$

WIZ011>013-019>022-031-037>040-048>050-281300-
NORTHEAST WISCONSIN

CITY           SKY/WX    TMP DP  RH WIND       PRES   REMARKS
ANTIGO         CLOUDY    21  18  90 SE9       30.14S WCI  10
6HR MIN TEMP:  21; 6HR MAX TEMP:  21;

SHAWANO        CLOUDY    25  19  76 S5        30.21S WCI  19
6HR MIN TEMP:  24; 6HR MAX TEMP:  25;

OCONTO         MOCLDY    11   9  92 MISG      30.23S
6HR MIN TEMP:   9; 6HR MAX TEMP:  16;

STURGEON BAY   MOCLDY    18  12  79 S5        30.25S WCI  11
6HR MIN TEMP:  16; 6HR MAX TEMP:  19;

GREEN BAY      PTCLDY    18  14  84 S3        30.23S
6HR MIN TEMP:  15; 6HR MAX TEMP:  18;

MANITOWOC      PTCLDY    14  11  87 CALM      30.25S
6HR MIN TEMP:  14; 6HR MAX TEMP:  24;

APPLETON       MOCLDY    21  16  79 S7        30.22R WCI  13
CLINTONVILLE   CLOUDY    23  19  86 S7        30.20F WCI  15
OSHKOSH        CLOUDY    22  16  78 S6        30.22R WCI  14
6HR MIN TEMP:  18; 6HR MAX TEMP:  23;

$$

WIZ032>034-041-042-053>061-281300-
SOUTHWEST WISCONSIN

CITY           SKY/WX    TMP DP  RH WIND       PRES   REMARKS
LA CROSSE      CLOUDY    27  22  81 S12       30.14F WCI  17
6HR MIN TEMP:  27; 6HR MAX TEMP:  29;

SPARTA         CLOUDY    26  23  87 S8        30.15F FOG     WCI  18
6HR MIN TEMP:  26; 6HR MAX TEMP:  27;

VIROQUA        CLOUDY    24  24 100 SE10      30.11F WCI  14
6HR MIN TEMP:  24; 6HR MAX TEMP:  25;

BOSCOBEL       CLOUDY    28  22  78 VRB3      30.18F
6HR MIN TEMP:  28; 6HR MAX TEMP:  29;

PRAIRIE DU CHI CLOUDY    27  22  83 SE13      30.17S WCI  16
6HR MIN TEMP:  27; 6HR MAX TEMP:  27;

PLATTEVILLE    CLOUDY    26  24  92 SE10      30.17S WCI  17
6HR MIN TEMP:  26; 6HR MAX TEMP:  27;

$$

WIZ056-057-062-063-064-067-068-281300-
SOUTH CENTRAL WISCONSIN

CITY           SKY/WX    TMP DP  RH WIND       PRES   REMARKS
REEDSBURG      CLOUDY    25  22  87 S13       30.18F WCI  14
6HR MIN TEMP:  25; 6HR MAX TEMP:  27;

BARABOO/DELLS  CLOUDY    24  20  87 S8        30.18S WCI  14
6HR MIN TEMP:  24; 6HR MAX TEMP:  26;

LONE ROCK      CLOUDY    26  21  81 SE9       30.20F WCI  17
6HR MIN TEMP:  22; 6HR MAX TEMP:  28;

MINERAL POINT  CLOUDY    28  25  86 SE8       30.16F FOG     WCI  20
MADISON        PTCLDY    22  17  81 S9        30.21F WCI  12
6HR MIN TEMP:  21; 6HR MAX TEMP:  25;

MIDDLETON      CLOUDY    24  19  82 S6        30.21S WCI  17
6HR MIN TEMP:  23; 6HR MAX TEMP:  29;

WATERTOWN      PTCLDY    19  17  93 SE3       30.22F
6HR MIN TEMP:  19; 6HR MAX TEMP:  23;

MONROE         CLOUDY    25  23  93 SE10      30.19F WCI  15
JANESVILLE     CLEAR     21  18  86 SE7       30.23S WCI  13
$$

WIZ051-052-058>065-066-070>072-281300-
SOUTHEAST WISCONSIN

CITY           SKY/WX    TMP DP  RH WIND       PRES   REMARKS
MILWAUKEE      PTCLDY    23  16  74 SW3       30.26R
6HR MIN TEMP:  20; 6HR MAX TEMP:  28;

WAUKESHA       NOT AVBL
MILWAUKEE/TIMM PTCLDY    23  18  80 CALM      30.25S
RACINE         PTCLDY    19  15  84 SW3       30.28R
6HR MIN TEMP:  18; 6HR MAX TEMP:  27;

BURLINGTON     MOCLDY    14  13  95 CALM      30.25S
6HR MIN TEMP:  13; 6HR MAX TEMP:  19;

KENOSHA        MOCLDY    20  16  84 S3        30.27R
6HR MIN TEMP:  18; 6HR MAX TEMP:  23;

FOND DU LAC    CLOUDY    22  16  78 S5        30.23R WCI  16
6HR MIN TEMP:  19; 6HR MAX TEMP:  23;

SHEBOYGAN      PTCLDY    18  14  84 CALM      30.24S
6HR MIN TEMP:  16; 6HR MAX TEMP:  25;

WEST BEND      PTCLDY    19  14  79 CALM      30.24R
JUNEAU         PTCLDY    20  17  86 SE7       30.23S WCI  11
6HR MIN TEMP:  20; 6HR MAX TEMP:  24;

$$

LSZ147-162-281300-
LAKE SUPERIOR

STATION/POSITION TIME  TEMP    WIND        PRES    WAVE
                       AIR SEA DIR/SP/G            HT/PER
                 (UTC) (F)     (DEG/KT/KT) (MB)    (FT/S)
DEVILS ISLAND    1200   28     170/  5/  7 1019.6F
PORT WING        1100   26     170/  3/  4 1018.6
SAXON HARBOR     1100   28     190/  1/  5 1019.0F
$$

LMZ867-665-643>646-281300-
LAKE MICHIGAN

STATION/POSITION TIME  TEMP    WIND        PRES    WAVE
                       AIR SEA DIR/SP/G            HT/PER


USA.gov is the U.S. government's official web portal to all federal, state and local government web resources and services.